Location: Kings Park
(40.8862°N, 73.2573°W)
Time: 05:51:56
(UTC+00:00)

Cosmos 2058 - Pass Details

Date: 29 October 2020
Orbit: 562 x 584 km, 82.5° (Epoch: 27 November)

Event Time Altitude Azimuth Distance (km) Brightness Sun altitude
Rises 22:19:31 0° 9° (N) 2,762 6.2 -5.8°
Reaches altitude 10° 22:22:21 10° 30° (NNE) 1,861 5.1 -6.3°
Maximum altitude 22:25:06 17° 72° (ENE) 1,447 4.3 -6.9°
Drops below altitude 10° 22:27:51 10° 115° (ESE) 1,855 5.0 -7.4°
Sets 22:30:38 0° 135° (SE) 2,749 6.1 -7.9°
